Wind_Speed
23 22 23 24 25 24 22 21 20 20 21 21 21 20 19 19 18 18 17 16 15 15 14 12 12 11 11 10 10 10 9 9 9 8 8 8 7 7 6 5 5 5 5 5 5 5 4 5 5
24 24 25 26 27 26 24 23 22 22 22 22 22 22 21 20 19 19 18 17 17 17 16 14 14 13 13 12 12 12 11 11 11 10 10 9 9 9 8 7 7 6 6 6 6 6 6 6 7
26 26 27 29 29 27 25 25 25 24 24 24 24 24 23 21 20 20 20 19 18 18 17 16 16 15 15 14 14 14 13 13 12 12 11 11 11 11 10 10 9 8 8 8 8 8 8 8 8
28 28 30 31 29 27 27 27 28 27 27 27 27 26 25 23 22 22 22 21 20 19 19 19 18 17 16 16 15 15 15 14 14 13 13 13 13 13 12 12 11 11 11 10 10 11 10 10 10
29 30 32 32 30 29 29 29 29 29 29 29 29 28 27 26 24 23 23 23 22 22 21 21 20 20 19 18 17 17 16 16 15 15 14 14 14 14 14 14 14 13 13 12 12 12 12 12 12
31 32 33 33 31 30 31 31 31 32 31 31 31 31 30 28 27 26 25 25 24 24 23 23 22 21 20 19 19 19 18 17 17 17 16 16 16 16 16 15 15 15 14 14 14 13 13 13 13
32 34 34 33 33 33 33 33 34 34 34 33 33 33 32 31 30 29 28 27 26 26 25 24 24 23 22 21 21 20 20 19 19 19 18 18 17 17 17 17 17 17 16 16 15 15 15 14 14
33 34 34 34 34 35 35 36 37 37 36 35 35 35 34 33 33 32 31 30 29 28 28 27 26 25 24 23 22 22 22 21 21 20 20 20 20 19 19 19 18 18 17 17 17 16 16 16 16
33 35 35 34 35 36 36 38 39 39 39 38 38 37 36 36 35 34 34 32 31 31 30 29 28 27 26 25 25 24 23 23 23 22 22 21 21 21 20 20 19 19 18 18 17 17 17 17 18
33 34 34 34 36 37 37 39 40 40 40 40 40 39 38 37 37 36 36 35 34 33 32 31 30 29 28 27 27 26 25 25 24 24 24 23 22 22 21 21 21 20 19 19 19 18 18 18 19
34 34 34 35 36 37 37 39 40 41 41 41 42 41 40 40 39 38 38 37 36 35 35 34 32 31 30 29 29 27 27 26 26 26 25 25 24 23 22 22 22 21 21 21 20 20 20 20 20
34 34 35 35 36 36 37 38 39 40 42 42 43 42 41 42 41 40 40 40 39 38 37 36 35 34 33 32 31 30 29 28 28 27 27 26 25 24 24 23 24 23 23 23 22 22 22 22 22
34 34 35 36 36 37 38 39 39 39 41 43 44 44 43 43 43 42 42 42 41 40 39 38 37 36 35 34 33 32 31 30 30 29 28 28 27 27 26 25 25 26 25 25 25 24 24 24 24
33 33 34 36 37 37 38 39 40 40 41 43 44 45 45 44 44 43 42 41 40 40 39 38 39 38 37 36 35 34 33 32 31 31 31 30 29 29 28 28 28 27 27 27 27 27 27 27 26
32 32 34 35 37 38 39 40 40 40 41 42 44 45 45 44 43 43 42 40 39 39 39 39 39 40 39 38 37 36 36 33 33 33 33 32 31 31 30 29 30 30 30 29 29 29 29 29 29
31 32 34 35 37 38 40 40 40 41 41 42 43 44 44 44 43 43 43 41 40 40 40 40 40 40 40 39 38 38 37 36 35 35 35 34 33 33 33 32 32 32 32 31 31 31 31 30 31
30 32 34 35 36 38 40 40 40 41 42 43 43 44 44 44 44 43 43 43 41 41 41 41 41 41 42 41 40 39 38 38 38 37 37 36 35 35 35 35 35 34 34 34 33 32 32 33 32
29 31 32 33 34 36 38 39 40 40 41 42 43 43 42 43 44 44 44 44 43 43 43 42 43 42 43 43 42 40 39 39 40 39 39 38 38 37 37 37 36 36 35 35 35 34 34 34 34
28 29 30 30 32 34 35 36 37 38 39 40 41 42 42 42 43 44 45 44 44 43 43 44 44 43 43 44 43 42 41 41 41 41 41 40 40 40 39 39 39 38 38 37 37 36 35 35 36
27 28 29 29 29 31 32 33 33 35 36 37 39 40 41 42 42 42 43 44 44 43 43 44 43 43 44 44 43 43 43 43 43 43 42 41 41 41 41 41 41 40 40 39 38 38 38 37 37
26 26 27 27 27 28 29 29 30 32 34 36 37 39 40 39 40 41 42 42 44 44 43 44 45 45 45 44 43 44 44 44 44 43 43 43 42 42 43 43 42 42 42 41 41 41 40 40 40
24 23 24 24 24 25 26 28 27 30 32 34 35 37 38 38 38 39 39 40 42 44 45 45 46 46 46 46 45 44 44 44 44 44 44 44 44 44 44 44 44 44 44 43 43 43 42 42 42
22 22 22 22 23 23 24 27 26 28 31 32 34 36 37 38 39 39 39 40 41 42 44 45 47 47 47 47 46 46 46 45 44 45 45 45 45 46 46 46 46 46 45 45 45 44 44 44 44
22 23 22 23 23 24 22 25 25 25 28 30 32 34 36 36 38 39 39 40 40 41 43 45 47 47 47 47 47 47 46 46 46 46 46 46 46 46 47 47 46 46 46 46 46 46 46 45 45
22 22 22 23 24 24 23 24 24 24 24 26 28 32 34 34 35 37 38 39 39 40 41 43 45 46 47 48 47 46 46 46 46 47 47 47 47 47 47 46 47 47 46 46 46 47 47 47 46
21 22 22 24 25 24 24 24 23 23 24 24 25 28 32 34 34 34 36 38 38 38 39 41 43 44 45 46 46 47 47 47 47 47 48 47 47 48 47 47 47 46 47 47 47 48 48 48 48
19 21 22 24 25 25 24 23 23 23 24 25 26 28 30 33 34 33 34 36 37 37 38 39 40 41 43 45 46 46 46 47 47 47 47 47 48 48 47 47 47 47 48 48 48 48 48 49 49
19 20 22 23 24 24 24 23 23 24 25 26 26 27 29 31 32 33 33 34 35 36 37 37 38 38 39 41 42 43 46 47 47 48 48 48 48 48 48 48 47 47 48 48 48 48 49 49 50
20 21 22 22 22 23 24 24 25 26 26 26 26 26 27 29 30 32 32 31 33 34 35 35 36 36 38 39 41 41 42 44 45 46 47 48 48 48 48 48 47 47 47 48 49 49 49 49 49
21 21 22 23 23 23 25 24 24 24 24 26 26 25 26 28 29 30 30 31 32 33 34 35 36 36 37 39 40 41 42 42 44 45 47 48 48 48 48 48 48 48 48 48 48 48 48 48 48
Wind_Direction
244 245 245 244 244 244 243 242 242 241 239 239 239 240 240 238 237 237 236 234 234 236 238 240 240 240 238 239 242 243 246 248 247 248 250 252 252 254 260 262 265 271 275 279 283 288 293 297 301
245 245 246 245 245 245 244 244 243 242 241 240 240 240 239 238 237 238 237 236 236 237 238 240 241 242 241 240 243 245 247 249 249 249 250 251 252 253 255 258 262 266 270 272 276 281 283 286 290
247 246 247 247 246 246 246 246 245 244 243 243 242 241 240 239 237 237 237 236 236 238 239 241 242 242 244 244 245 246 247 249 248 250 251 251 252 252 253 256 261 264 267 269 273 277 278 280 283
249 248 248 248 247 247 248 247 246 245 245 244 244 242 241 240 238 238 238 239 239 240 241 242 243 243 244 245 245 246 247 249 250 251 252 253 253 253 255 256 258 262 265 266 269 272 275 278 280
251 250 250 249 249 248 248 248 246 245 245 244 244 243 242 241 240 239 239 240 241 242 243 243 244 245 246 246 247 247 247 249 251 251 253 253 254 254 256 257 258 261 264 265 266 268 271 275 277
254 253 252 252 250 249 247 246 245 245 245 243 243 244 243 242 241 240 239 240 241 242 243 244 245 245 246 247 248 248 248 249 252 253 253 255 257 257 257 258 260 261 262 265 266 267 269 270 273
255 254 254 253 252 250 248 246 244 244 244 243 242 243 244 243 242 241 241 241 242 243 244 245 245 246 246 246 247 249 250 251 252 254 255 257 258 259 259 260 261 262 261 262 265 266 267 269 270
256 255 254 253 252 251 249 248 245 244 244 243 241 242 242 243 243 243 242 242 243 244 245 245 246 247 247 247 247 249 251 252 253 253 254 256 260 261 260 259 259 259 259 260 263 264 265 266 270
258 257 255 255 254 253 251 249 246 244 243 242 241 241 242 242 243 243 243 243 244 245 246 246 246 247 248 248 248 249 251 252 253 254 255 257 259 260 258 257 257 258 259 260 261 262 264 265 268
259 259 258 256 255 254 252 249 246 244 243 242 241 241 241 242 243 243 243 243 243 244 246 246 247 247 248 249 249 249 250 251 254 256 256 256 257 257 255 255 257 258 259 261 261 261 263 265 269
261 261 258 256 255 254 253 250 247 244 243 242 241 242 242 242 243 243 243 243 243 244 245 245 247 247 247 248 249 250 250 251 253 256 256 255 254 254 254 256 257 258 260 261 262 262 263 265 268
262 260 258 257 255 254 253 251 249 245 245 244 243 243 243 244 244 244 243 244 244 244 244 244 245 246 246 247 248 250 252 252 253 254 254 254 252 251 253 255 258 259 260 261 262 263 264 265 268
262 260 258 257 257 256 254 252 249 247 247 245 245 245 245 243 244 244 243 243 243 243 244 244 244 245 246 247 248 249 250 252 253 253 253 252 252 252 253 255 258 259 260 261 262 263 265 266 267
264 262 260 259 259 255 255 253 250 249 249 246 245 245 246 244 243 243 243 243 243 243 243 244 244 245 246 246 247 249 250 251 251 252 252 252 253 253 254 256 257 259 260 261 262 263 265 266 266
265 264 262 261 260 256 256 255 252 250 250 248 246 245 245 244 243 243 242 241 242 242 242 243 244 245 245 246 247 248 248 249 250 250 251 253 253 254 255 256 258 260 261 262 263 264 265 267 268
265 266 264 263 262 258 258 258 253 250 249 249 247 245 244 242 242 243 242 242 242 243 243 243 244 245 244 245 246 247 248 249 250 249 250 252 253 254 255 256 258 260 261 262 264 264 265 267 268
268 269 267 265 262 261 259 258 252 249 248 248 247 245 244 241 241 242 243 243 243 243 243 244 244 245 244 244 246 247 247 248 250 250 250 252 254 255 256 257 258 260 261 261 264 265 266 267 268
271 271 269 267 264 263 262 258 252 249 248 247 246 245 243 242 241 243 243 243 244 244 243 244 243 244 245 244 246 247 248 249 250 250 251 252 253 255 256 257 258 260 262 262 263 265 266 267 268
273 272 270 268 266 265 264 259 252 250 249 247 245 243 242 242 242 243 244 243 243 243 243 243 242 242 244 245 246 247 249 250 250 251 252 253 254 255 257 258 260 261 261 262 264 264 265 266 268
274 274 272 271 268 267 264 259 254 252 250 247 245 243 242 243 244 245 244 243 242 242 242 242 242 243 243 245 246 248 249 251 252 253 253 254 255 255 256 258 259 261 261 262 263 264 265 267 269
276 275 275 272 269 267 265 260 255 253 250 247 245 244 243 243 243 246 246 245 244 243 243 242 242 242 243 245 248 249 250 252 253 253 254 255 255 256 256 256 259 261 262 262 263 265 267 268 270
276 275 275 273 272 270 268 265 256 253 250 248 245 244 243 242 244 245 246 247 244 242 242 241 241 242 244 246 248 250 251 251 253 254 255 256 256 257 258 258 259 260 262 262 263 265 267 269 269
275 275 275 273 271 271 270 267 261 256 251 250 246 245 245 244 245 245 245 245 242 241 241 241 242 244 246 248 248 250 252 252 253 254 255 256 257 258 259 259 260 261 262 262 263 265 267 268 269
277 278 275 273 273 273 273 270 265 260 258 253 248 245 244 244 244 244 244 243 243 244 244 243 244 244 245 247 251 252 252 253 253 254 256 257 257 258 259 259 260 261 262 262 264 266 267 269 270
277 276 277 275 273 275 275 272 267 265 263 258 251 246 245 243 243 244 244 244 245 246 246 244 244 246 246 248 250 251 252 252 253 255 256 256 257 258 258 258 260 261 262 263 265 266 267 270 271
278 277 278 279 278 276 273 273 271 267 266 261 256 252 248 246 247 247 247 247 247 246 247 246 248 248 248 249 249 251 252 253 254 255 256 256 257 257 257 257 258 260 262 264 266 267 268 270 271
283 279 281 282 281 279 277 274 270 271 268 265 263 259 252 248 248 249 248 247 249 251 251 247 249 251 252 252 251 251 252 252 253 254 255 256 256 257 256 256 258 260 262 264 267 268 270 270 271
284 284 283 283 284 283 281 280 276 274 273 272 268 263 257 252 249 249 250 248 249 251 251 251 252 254 254 253 252 253 252 252 254 254 256 256 257 257 257 256 258 260 263 265 266 268 269 270 271
283 284 284 284 282 284 286 284 278 278 278 274 269 264 260 255 252 251 251 250 251 251 251 252 253 254 254 255 255 255 253 253 254 255 256 256 257 258 258 257 258 260 263 265 266 268 270 271 272
282 284 285 285 285 284 286 285 284 281 282 275 268 266 263 258 254 252 253 253 253 252 252 253 253 255 256 256 256 255 254 255 256 258 258 257 257 258 259 259 259 261 263 265 267 269 270 271 271
Height
5846 5847 5848 5850 5851 5852 5853 5855 5857 5858 5859 5860 5861 5863 5864 5866 5868 5871 5870 5870 5870 5871 5872 5872 5873 5873 5874 5874 5874 5875 5875 5875 5875 5875 5875 5875 5875 5875 5874 5874 5874 5874 5873 5873 5873 5872 5872 5871 5871
5841 5842 5844 5844 5845 5847 5849 5851 5852 5854 5856 5856 5857 5859 5860 5862 5863 5865 5865 5866 5868 5869 5869 5870 5870 5871 5872 5872 5872 5873 5873 5873 5873 5873 5873 5873 5873 5873 5873 5873 5872 5872 5872 5872 5871 5871 5870 5870 5870
5835 5836 5838 5838 5840 5842 5845 5847 5848 5849 5851 5852 5853 5854 5856 5858 5859 5860 5862 5863 5864 5865 5866 5867 5868 5868 5869 5870 5870 5870 5871 5871 5871 5871 5871 5871 5871 5871 5871 5870 5870 5870 5870 5870 5870 5869 5869 5869 5868
5830 5831 5832 5833 5834 5838 5840 5841 5842 5844 5845 5847 5848 5849 5851 5853 5855 5856 5858 5859 5860 5862 5863 5864 5865 5865 5866 5867 5867 5868 5868 5868 5868 5868 5868 5869 5868 5868 5868 5868 5868 5868 5868 5867 5867 5867 5867 5867 5866
5824 5824 5825 5826 5829 5832 5833 5834 5835 5837 5839 5841 5843 5844 5846 5848 5850 5851 5853 5855 5856 5857 5859 5860 5861 5862 5863 5863 5864 5864 5865 5865 5865 5865 5865 5865 5866 5865 5865 5865 5865 5865 5865 5865 5864 5864 5864 5864 5864
5817 5817 5818 5819 5822 5825 5825 5826 5828 5830 5832 5835 5837 5839 5841 5843 5844 5846 5848 5849 5851 5853 5854 5855 5857 5858 5859 5860 5860 5861 5861 5862 5862 5862 5862 5862 5862 5862 5862 5862 5862 5861 5861 5861 5861 5861 5861 5861 5861
5810 5810 5810 5813 5815 5816 5818 5819 5820 5823 5825 5828 5830 5832 5835 5837 5839 5840 5842 5844 5846 5847 5849 5851 5852 5853 5854 5855 5856 5857 5857 5858 5858 5858 5858 5858 5858 5858 5858 5858 5857 5857 5857 5857 5857 5858 5858 5858 5858
5800 5802 5802 5804 5806 5808 5809 5810 5812 5815 5817 5820 5823 5825 5828 5831 5832 5834 5836 5838 5840 5842 5844 5845 5847 5848 5849 5850 5851 5852 5853 5853 5854 5854 5854 5854 5854 5854 5853 5853 5853 5853 5853 5853 5853 5853 5853 5854 5854
5792 5793 5793 5795 5797 5799 5799 5800 5803 5806 5808 5812 5814 5817 5821 5823 5825 5827 5830 5832 5834 5836 5838 5839 5841 5842 5844 5845 5846 5847 5848 5848 5849 5849 5849 5849 5849 5849 5848 5848 5848 5848 5848 5848 5848 5849 5849 5849 5850
5784 5784 5786 5787 5787 5788 5789 5790 5793 5796 5799 5803 5806 5809 5812 5815 5817 5820 5822 5825 5827 5829 5831 5833 5835 5836 5838 5839 5840 5841 5842 5843 5843 5843 5844 5843 5843 5843 5843 5843 5843 5843 5843 5843 5844 5844 5844 5845 5845
5775 5775 5777 5776 5776 5778 5779 5781 5783 5786 5790 5794 5797 5800 5804 5806 5809 5812 5814 5816 5819 5821 5823 5825 5827 5829 5831 5832 5834 5835 5836 5837 5837 5838 5838 5838 5838 5838 5838 5838 5838 5839 5839 5839 5839 5839 5839 5840 5840
5766 5767 5767 5767 5767 5768 5770 5771 5774 5777 5781 5784 5787 5790 5794 5797 5800 5802 5805 5807 5810 5812 5815 5817 5819 5821 5823 5825 5826 5828 5829 5830 5831 5831 5831 5832 5832 5832 5833 5833 5833 5834 5834 5834 5834 5834 5834 5834 5835
5757 5758 5758 5758 5758 5759 5760 5762 5765 5768 5770 5774 5776 5779 5783 5787 5789 5792 5795 5797 5800 5802 5805 5807 5810 5812 5815 5817 5819 5821 5822 5823 5824 5824 5825 5825 5826 5827 5827 5828 5828 5828 5828 5828 5829 5828 5829 5829 5829
5749 5749 5749 5748 5748 5749 5750 5752 5754 5758 5760 5762 5766 5768 5772 5775 5778 5781 5784 5787 5789 5792 5795 5797 5800 5803 5805 5808 5811 5813 5814 5815 5816 5817 5818 5819 5820 5821 5821 5822 5822 5822 5822 5823 5823 5823 5823 5823 5823
5740 5740 5739 5739 5739 5740 5740 5742 5745 5747 5749 5751 5754 5757 5760 5764 5767 5770 5773 5777 5779 5782 5785 5788 5790 5793 5796 5799 5802 5804 5805 5807 5808 5810 5811 5812 5813 5814 5815 5816 5816 5816 5816 5816 5816 5817 5817 5817 5817
5731 5730 5730 5730 5729 5729 5730 5732 5735 5735 5737 5740 5743 5746 5749 5753 5756 5759 5763 5766 5769 5772 5775 5777 5780 5783 5786 5789 5792 5794 5796 5798 5800 5801 5803 5805 5806 5807 5808 5808 5809 5809 5809 5810 5810 5810 5810 5810 5810
5722 5721 5721 5720 5719 5718 5718 5720 5724 5724 5726 5729 5732 5735 5738 5742 5746 5749 5752 5756 5759 5761 5764 5767 5770 5773 5777 5780 5783 5785 5787 5789 5791 5793 5795 5796 5798 5799 5800 5801 5802 5802 5802 5802 5803 5803 5803 5803 5803
5715 5713 5712 5711 5709 5708 5707 5709 5712 5713 5715 5719 5722 5725 5728 5732 5735 5738 5742 5745 5748 5750 5753 5756 5759 5763 5766 5770 5773 5776 5778 5780 5782 5784 5786 5787 5789 5790 5791 5793 5793 5794 5794 5795 5795 5795 5795 5795 5795
5707 5705 5704 5703 5701 5700 5699 5699 5702 5703 5705 5708 5711 5714 5718 5722 5725 5727 5730 5733 5736 5739 5741 5744 5748 5752 5756 5760 5763 5767 5769 5771 5772 5774 5776 5778 5780 5781 5783 5784 5785 5786 5786 5787 5787 5787 5787 5787 5787
5699 5698 5697 5696 5693 5692 5691 5691 5693 5694 5696 5698 5701 5704 5708 5712 5714 5716 5718 5721 5725 5728 5731 5734 5738 5742 5746 5750 5753 5756 5759 5761 5763 5764 5766 5768 5770 5772 5773 5775 5776 5776 5777 5778 5778 5779 5779 5779 5779
5693 5691 5690 5689 5687 5685 5684 5684 5685 5686 5686 5689 5691 5695 5699 5702 5704 5706 5708 5711 5714 5717 5721 5725 5729 5732 5736 5739 5742 5746 5748 5751 5753 5755 5756 5758 5760 5762 5764 5765 5766 5767 5768 5769 5769 5770 5770 5770 5770
5687 5685 5684 5682 5680 5679 5678 5676 5679 5678 5678 5679 5683 5686 5689 5693 5695 5697 5699 5702 5704 5708 5712 5715 5719 5723 5726 5729 5733 5736 5738 5740 5743 5744 5746 5748 5750 5752 5753 5755 5756 5757 5758 5759 5760 5760 5761 5760 5760
5681 5680 5678 5676 5674 5673 5672 5670 5672 5671 5672 5673 5675 5678 5681 5684 5687 5689 5692 5693 5695 5699 5703 5706 5710 5713 5716 5719 5722 5724 5726 5729 5731 5733 5735 5737 5739 5741 5742 5744 5745 5747 5748 5748 5749 5750 5750 5750 5750
5676 5675 5672 5670 5668 5667 5667 5664 5664 5665 5666 5667 5668 5670 5673 5676 5678 5681 5683 5685 5687 5690 5693 5696 5699 5703 5706 5708 5710 5712 5715 5717 5720 5722 5724 5726 5728 5729 5731 5733 5734 5735 5737 5738 5738 5739 5739 5739 5739
5670 5669 5667 5664 5662 5662 5661 5658 5659 5660 5660 5660 5661 5663 5665 5667 5670 5672 5674 5677 5679 5681 5683 5686 5689 5691 5694 5697 5699 5701 5703 5705 5708 5710 5712 5714 5716 5718 5720 5721 5723 5724 5726 5726 5727 5728 5728 5728 5728
5665 5664 5662 5660 5657 5656 5654 5652 5655 5655 5654 5653 5654 5656 5657 5659 5662 5664 5666 5669 5671 5673 5675 5676 5678 5680 5682 5685 5687 5690 5692 5693 5696 5698 5700 5702 5704 5707 5708 5710 5712 5713 5714 5715 5716 5716 5717 5717 5716
5660 5658 5657 5654 5652 5650 5648 5649 5650 5649 5649 5648 5648 5648 5649 5651 5653 5656 5658 5660 5662 5664 5665 5667 5669 5671 5672 5674 5675 5677 5679 5681 5683 5686 5688 5690 5692 5694 5696 5698 5700 5701 5703 5704 5704 5704 5705 5705 5704
5655 5653 5651 5648 5646 5644 5644 5643 5644 5643 5642 5642 5642 5641 5642 5644 5645 5647 5649 5652 5653 5655 5656 5657 5659 5661 5662 5663 5664 5666 5668 5669 5671 5673 5676 5678 5680 5682 5684 5686 5688 5689 5690 5691 5692 5692 5692 5692 5692
5650 5648 5644 5642 5641 5639 5638 5640 5638 5637 5636 5635 5634 5634 5635 5636 5637 5639 5641 5642 5644 5645 5647 5648 5650 5651 5652 5653 5653 5655 5656 5658 5659 5661 5663 5666 5668 5670 5672 5674 5676 5677 5678 5679 5679 5680 5679 5680 5679
5643 5642 5640 5638 5636 5634 5632 5635 5632 5631 5629 5628 5628 5627 5628 5629 5629 5631 5633 5634 5635 5636 5637 5639 5640 5641 5641 5641 5642 5643 5645 5646 5648 5649 5651 5653 5655 5657 5659 5661 5663 5664 5666 5666 5667 5667 5667 5667 5667